[[{"header":{"parameterUnit":"m.s-1","parameterCategory":1,"la1":30.2991,"la2":30.254,"lo1":-89.0895,"lo2":-89.0444,"dy":0.0017,"dx":0.0017,"nx":28,"ny":28,"refTime":"2025-11-22T03:00:00:Z","depth":0,"parameterNumber":2,"parameterNumberName":"U-component_of_WINDS"},"data":[0,0,0,0,0,0,0,0,0,0,0,0,0,0,0,0,0,0,0,0,0,0,0,0,0,0,0,0,0,0,0,0,0,0,0,0,0,0,0,0,0,0,0,0,0,0,0,0,0,0,0,0,0,0,0,0,0,0,1.6242,1.6244,0,1.6374,1.6376,1.6377,1.6396,1.6395,1.6393,1.6392,1.6533,1.6538,1.6543,0,0,0,0,0,0,0,0,0,0,0,0,0,1.6013,1.6017,1.6242,1.6244,1.6246,1.6374,1.6376,1.6378,1.6396,1.6394,1.6393,1.6392,1.6532,1.6538,1.6543,0,0,0,0,0,0,0,0,0,0,0,0,0,1.6126,1.6019,1.6242,1.627,1.6274,1.6374,1.6376,1.6378,1.6396,1.6394,1.6393,1.6391,1.653,1.6537,1.6544,1.6627,0,0,1.6567,1.657,0,0,0,0,0,0,0,0,1.6119,1.6134,1.6264,1.6268,1.6273,1.6366,1.6347,1.6462,1.6397,1.635,1.6392,1.639,1.648,1.6491,1.652,1.6634,1.664,1.6567,1.6572,1.6575,1.6577,0,0,0,0,0,0,0,1.6112,1.6129,1.6295,1.6266,1.6271,1.6278,1.6292,1.6369,1.6424,1.6354,1.6356,1.6371,1.6482,1.6513,1.6524,1.6642,1.6567,1.6574,1.6578,1.6581,1.6833,1.6835,0,0,0,0,0,0,1.6098,1.6122,1.629,1.6299,1.619,1.6284,1.6299,1.6338,1.6423,1.6434,1.6372,1.6371,1.6501,1.6515,1.6529,1.6633,1.6575,1.6582,1.6586,1.683,1.6833,1.6836,0,0,0,0,0,0,1.6093,1.6113,1.6285,1.6211,1.6233,1.629,1.6333,1.6342,1.6373,1.6437,1.6447,1.6393,1.65,1.6518,1.6603,1.6638,1.6585,1.6592,1.6828,1.6831,1.6834,1.6842,0,0,0,0,0,0,1.6086,1.6111,1.6141,1.6211,1.6237,1.6355,1.6335,1.6346,1.6385,1.6385,1.646,1.647,1.65,1.6591,1.661,1.6648,1.6598,1.6825,1.6829,1.6833,1.6838,1.6845,1.685,0,0,0,0,0,1.6078,1.6139,1.6142,1.6163,1.6276,1.6357,1.6372,1.6403,1.6388,1.642,1.6461,1.6468,1.6631,1.66,1.6621,1.6661,1.6823,1.6828,1.6833,1.6836,1.6843,1.685,0,0,0,0,0,0,1.6073,1.6148,1.6153,1.6238,1.6291,1.636,1.6401,1.641,1.647,1.6468,1.6506,1.6523,1.6606,1.6642,1.6606,1.6747,1.6726,1.6735,1.6721,1.6729,1.6734,1.6725,1.6604,0,0,0,0,0,1.6081,1.6139,1.6202,1.6271,1.6297,1.6344,1.6381,1.64,1.6457,1.648,1.6527,1.6584,1.6649,1.669,1.6753,1.6843,1.6861,1.6881,1.6887,1.6892,1.69,1.6954,1.6964,1.6852,1.6852,1.6852,0,0,1.61,1.6148,1.6183,1.6271,1.6314,1.6375,1.6363,1.6428,1.6474,1.6491,1.6573,1.661,1.6676,1.6764,1.6806,1.6797,1.6935,1.6898,1.6901,1.6908,1.696,1.697,1.698,1.6856,1.6855,1.6854,0,0,1.6166,1.6207,1.627,1.6313,1.6378,1.6409,1.6424,1.6492,1.6516,1.6599,1.6614,1.667,1.6779,1.6827,1.6865,1.6949,1.6959,1.6969,1.7,1.7052,1.7061,1.7069,1.7102,1.7113,1.6976,1.6976,1.6977,0,1.6182,1.6272,1.6302,1.6366,1.6406,1.6422,1.6487,1.6528,1.6611,1.6639,1.6627,1.6766,1.6811,1.6912,1.6933,1.6962,1.6983,1.6961,1.7056,1.7065,1.7073,1.7105,1.7117,1.6977,1.6977,1.6977,1.6977,0,1.629,1.6353,1.6396,1.6474,1.6518,1.6583,1.6625,1.6666,1.6682,1.6716,1.6801,1.6856,1.6931,1.6956,1.6973,1.706,1.7053,1.7048,1.7028,1.7084,1.7115,1.7127,1.6979,1.6978,1.6978,1.6978,0,0,1.6358,1.6451,1.6467,1.6503,1.6576,1.6626,1.6692,1.6763,1.68,1.6856,1.6915,1.7007,1.7004,1.7047,1.7069,1.7114,1.7181,1.7105,1.7107,1.7119,1.7284,1.7289,1.7303,1.7186,1.7189,1.7191,1.728,0,1.6435,1.6551,1.658,1.6681,1.6741,1.6757,1.6815,1.6867,1.69,1.6957,1.6995,1.706,1.7049,1.7076,1.7121,1.7163,1.7215,1.7157,1.7245,1.7248,1.723,1.7318,1.7323,1.7405,1.7292,1.7294,1.7295,0,1.654,1.6597,1.6703,1.6769,1.6796,1.6847,1.6916,1.6969,1.703,1.7051,1.7099,1.7117,1.719,1.7164,1.7267,1.7226,1.7264,1.729,1.7294,1.7306,1.7277,1.7335,1.7431,1.7444,1.7314,1.7312,1.7311,0,1.6582,1.6686,1.6763,1.6793,1.6872,1.6908,1.6943,1.7001,1.7043,1.7104,1.7132,1.72,1.7239,1.7293,1.733,1.7307,1.7431,1.7407,1.7453,1.7453,1.7481,1.7479,1.7587,1.75,1.75,1.75,1.7499,0,1.6666,1.6731,1.6783,1.6831,1.6906,1.6939,1.7012,1.7048,1.71,1.7157,1.7175,1.7229,1.7273,1.7334,1.7363,1.7446,1.7462,1.7484,1.7491,1.7484,1.7482,1.7511,1.7508,1.7503,1.7502,1.7501,1.7501,0,1.6727,1.6764,1.685,1.6917,1.6935,1.6987,1.7046,1.7095,1.7127,1.72,1.7219,1.7272,1.7345,1.7386,1.7478,1.7498,1.759,1.7594,1.7569,1.7573,1.7618,1.7614,1.7751,1.7772,1.7668,1.7669,1.767,0,1.6779,1.683,1.6901,1.694,1.6975,1.7037,1.7079,1.7114,1.7158,1.7231,1.7272,1.7345,1.7405,1.7521,1.757,1.7641,1.7648,1.7691,1.7659,1.7651,1.7653,1.765,1.7657,1.7697,1.7698,1.7699,1.77,0,1.6869,1.6885,1.6944,1.701,1.706,1.7114,1.7168,1.7199,1.7244,1.7293,1.7366,1.7413,1.7506,1.758,1.7655,1.7693,1.7706,1.7709,1.7724,1.7718,1.7703,1.7715,1.7587,1.7706,1.7706,1.7705,1.7705,1.7704,1.693,1.6976,1.7034,1.71,1.7144,1.7194,1.7244,1.7282,1.7343,1.7421,1.7438,1.7516,1.7578,1.7679,1.772,1.7783,1.7776,1.7797,1.7803,1.7809,1.7812,1.769,1.7797,1.7797,1.7797,1.7797,1.7796,0,1.7023,1.7061,1.7121,1.7196,1.7248,1.7251,1.7312,1.7357,1.7424,1.7479,1.7538,1.7624,1.7696,1.7749,1.7823,1.7864,1.7872,1.7883,1.7882,1.7891,1.7812,1.7793,1.7876,1.7876,1.7876,1.7876,1.7876,1.7875,1.7079,1.7158,1.7181,1.7283,1.7321,1.7396,1.7431,1.7479,1.7523,1.7617,1.7676,1.7709,1.7765,1.7843,1.791,1.7925,1.7953,1.7963,1.7979,1.7905,1.7896,1.7889,1.7871,1.7968,1.7968,1.8053,1.8054,1.8055]},{"header":{"parameterUnit":"m.s-1","parameterCategory":1,"la1":30.2991,"la2":30.254,"lo1":-89.0895,"lo2":-89.0444,"dy":0.0017,"dx":0.0017,"nx":28,"ny":28,"refTime":"2025-11-22T03:00:00:Z","depth":0,"parameterNumber":3,"parameterNumberName":"V-component_of_WINDS"},"data":[0,0,0,0,0,0,0,0,0,0,0,0,0,0,0,0,0,0,0,0,0,0,0,0,0,0,0,0,0,0,0,0,0,0,0,0,0,0,0,0,0,0,0,0,0,0,0,0,0,0,0,0,0,0,0,0,0,0,1.2147,1.2147,0,1.2144,1.2144,1.2144,1.2098,1.2097,1.2096,1.2095,1.2091,1.2092,1.2093,0,0,0,0,0,0,0,0,0,0,0,0,0,1.2111,1.2112,1.2147,1.2147,1.2147,1.2144,1.2144,1.2144,1.2099,1.2097,1.2096,1.2095,1.2091,1.2092,1.2093,0,0,0,0,0,0,0,0,0,0,0,0,0,1.212,1.2113,1.2147,1.2124,1.2122,1.2144,1.2144,1.2144,1.2099,1.2097,1.2095,1.2094,1.2091,1.2092,1.2094,1.2138,0,0,1.2098,1.2099,0,0,0,0,0,0,0,0,1.2119,1.2121,1.2127,1.2126,1.2123,1.212,1.213,1.2142,1.2099,1.2108,1.2095,1.2093,1.2102,1.2103,1.2106,1.2138,1.2137,1.2098,1.2099,1.21,1.21,0,0,0,0,0,0,0,1.2119,1.2121,1.2146,1.2128,1.2125,1.2113,1.2113,1.2132,1.2115,1.2107,1.2103,1.2104,1.2101,1.2105,1.2106,1.2137,1.2098,1.2099,1.21,1.2101,1.2205,1.2207,0,0,0,0,0,0,1.2122,1.2121,1.2146,1.2146,1.2117,1.2115,1.2115,1.2123,1.2114,1.2111,1.2105,1.2102,1.2103,1.2104,1.2105,1.2157,1.21,1.2101,1.2102,1.2203,1.2206,1.2208,0,0,0,0,0,0,1.2121,1.2124,1.2146,1.2132,1.2134,1.2118,1.2128,1.2124,1.2128,1.2113,1.211,1.2113,1.2102,1.2103,1.213,1.2156,1.2102,1.2103,1.2201,1.2204,1.2207,1.226,0,0,0,0,0,0,1.212,1.2124,1.2141,1.2133,1.2135,1.2172,1.2129,1.2125,1.213,1.2126,1.2119,1.2117,1.21,1.2128,1.2132,1.2157,1.2104,1.2199,1.2202,1.2206,1.2256,1.2265,1.2272,0,0,0,0,0,1.2119,1.2156,1.2142,1.2146,1.2156,1.2173,1.2174,1.2155,1.2133,1.2149,1.214,1.2117,1.2153,1.2131,1.2135,1.2161,1.2197,1.2201,1.2206,1.2253,1.2263,1.2272,0,0,0,0,0,0,1.2167,1.2155,1.2139,1.2175,1.2176,1.2166,1.2186,1.2167,1.2174,1.2169,1.2144,1.2143,1.2174,1.217,1.2147,1.2204,1.2171,1.2176,1.2205,1.2215,1.2223,1.2223,1.2106,0,0,0,0,0,1.2182,1.2198,1.2185,1.2218,1.2219,1.2203,1.2209,1.2195,1.2194,1.2194,1.2187,1.2187,1.2198,1.2206,1.2216,1.2255,1.2253,1.2275,1.2283,1.2289,1.2294,1.2315,1.2325,1.2222,1.2222,1.2221,0,0,1.2213,1.2208,1.2219,1.2228,1.2226,1.2243,1.2203,1.2222,1.2234,1.2197,1.2222,1.2217,1.2215,1.2249,1.2263,1.2246,1.2322,1.2295,1.23,1.2301,1.232,1.233,1.2339,1.2224,1.2224,1.2223,0,0,1.2278,1.2275,1.2302,1.2302,1.2301,1.229,1.2296,1.2289,1.2284,1.2309,1.2282,1.2295,1.2315,1.2315,1.2318,1.2383,1.2362,1.2386,1.2428,1.2448,1.2457,1.2464,1.2487,1.2496,1.2391,1.2391,1.2391,0,1.2316,1.234,1.2319,1.234,1.2344,1.2312,1.2339,1.2339,1.2341,1.2345,1.2326,1.2351,1.2347,1.2381,1.2397,1.24,1.2406,1.2387,1.2457,1.2464,1.247,1.2493,1.2502,1.2394,1.2394,1.2394,1.2394,0,1.2387,1.2404,1.2426,1.2429,1.2436,1.246,1.2443,1.2452,1.2437,1.2427,1.2453,1.2448,1.2456,1.2463,1.2448,1.2494,1.2484,1.2461,1.2428,1.2484,1.2504,1.2513,1.2399,1.2398,1.2397,1.2396,0,0,1.2483,1.2474,1.2483,1.2484,1.248,1.2492,1.2515,1.2523,1.2532,1.2534,1.2552,1.257,1.2549,1.2552,1.2537,1.2555,1.2607,1.253,1.253,1.2545,1.2659,1.2676,1.2687,1.2593,1.2594,1.2595,1.2659,0,1.2546,1.2584,1.2566,1.2606,1.2621,1.2591,1.261,1.261,1.2602,1.2613,1.2604,1.2617,1.2588,1.259,1.2606,1.2597,1.263,1.2592,1.261,1.2611,1.2612,1.2697,1.2716,1.2776,1.2667,1.2668,1.2669,0,1.2624,1.263,1.2673,1.2666,1.2672,1.269,1.2696,1.2708,1.2707,1.2699,1.2703,1.2683,1.2705,1.2671,1.27,1.2675,1.2681,1.2678,1.2679,1.2681,1.2644,1.2702,1.2795,1.2804,1.2682,1.2681,1.268,0,1.269,1.2709,1.2737,1.2739,1.2732,1.2745,1.2743,1.274,1.2747,1.2752,1.2756,1.2763,1.2768,1.2774,1.2757,1.2734,1.2788,1.2753,1.2783,1.2784,1.2797,1.2796,1.2893,1.2799,1.2799,1.2799,1.2799,0,1.2763,1.279,1.2767,1.2784,1.2813,1.2792,1.2821,1.2815,1.2813,1.2829,1.2802,1.2817,1.2793,1.2806,1.2792,1.2819,1.282,1.2815,1.2812,1.2818,1.2819,1.2822,1.2818,1.2801,1.2801,1.28,1.28,0,1.2842,1.2828,1.2856,1.2847,1.2846,1.2868,1.286,1.2876,1.2866,1.2886,1.2889,1.2873,1.2886,1.287,1.2881,1.2872,1.2909,1.2898,1.2909,1.2907,1.2938,1.2936,1.3041,1.3054,1.2951,1.2952,1.2953,0,1.289,1.291,1.2904,1.2913,1.2912,1.2926,1.2933,1.2912,1.292,1.292,1.2936,1.2947,1.2955,1.2978,1.2967,1.2976,1.2966,1.3002,1.2967,1.2973,1.2967,1.2967,1.2969,1.301,1.3011,1.3012,1.3013,0,1.2976,1.2968,1.2979,1.2987,1.2996,1.3001,1.3004,1.3013,1.2991,1.3001,1.3015,1.3021,1.3033,1.3045,1.3051,1.3048,1.3027,1.3024,1.3031,1.3039,1.3045,1.3043,1.293,1.3022,1.3021,1.302,1.3019,1.3019,1.3042,1.3058,1.3057,1.307,1.307,1.3074,1.3088,1.308,1.3091,1.31,1.3087,1.3104,1.3103,1.3109,1.3108,1.3121,1.3106,1.3117,1.3119,1.3123,1.3128,1.3042,1.3122,1.3122,1.3122,1.3121,1.3121,0,1.3127,1.3125,1.3137,1.3143,1.3153,1.3132,1.3135,1.3145,1.316,1.3161,1.3169,1.3185,1.3196,1.3187,1.3196,1.3209,1.3199,1.3212,1.3211,1.3211,1.3141,1.3134,1.3219,1.3219,1.3219,1.3219,1.3219,1.3219,1.3173,1.3201,1.3193,1.322,1.3217,1.3234,1.3238,1.3241,1.3242,1.3261,1.327,1.3264,1.326,1.3269,1.3279,1.3275,1.328,1.3297,1.329,1.3225,1.3216,1.3207,1.32,1.3298,1.3298,1.3359,1.336,1.336]}]]